Location: Plzen
(49.7500°N, 13.3670°E)
Time: 05:44:28
(UTC+02:00)

ISS - Pass Details

Date: 25 May 2021
Orbit: 417 x 422 km, 51.6° (Epoch: 13 June)

Event Time Altitude Azimuth Distance (km) Brightness Sun altitude
Rises 00:36:08 0° 285° (WNW) 2,369 0.4 -19.0°
Reaches altitude 10° 00:38:33 10° 269° (W) 1,503 -0.9 -19.1°
Enters shadow 00:39:25 15° 258° (WSW) 1,247 -1.4 -19.1°
